EST,Max TemperatureF,Mean TemperatureF,Min TemperatureF,Max Dew PointF,MeanDew PointF,Min DewpointF,Max Humidity, Mean Humidity, Min Humidity, Max Sea Level PressureIn, Mean Sea Level PressureIn, Min Sea Level PressureIn, Max VisibilityMiles, Mean VisibilityMiles, Min VisibilityMiles, Max Wind SpeedMPH, Mean Wind SpeedMPH, Max Gust SpeedMPH,PrecipitationIn, CloudCover, Events, WindDirDegrees
2012-11-1,70,55,39,40,26,14,82,47,12,30.01,29.96,29.91,10,10,10,21,8,24,0.00,0,,293
2012-11-2,79,57,35,49,39,30,92,61,29,30.05,29.99,29.92,10,10,9,20,6,25,0.00,0,,263
2012-11-3,84,63,42,56,49,41,96,64,31,30.12,30.04,30.00,10,8,3,12,2,15,0.00,0,,284
2012-11-4,83,66,49,58,53,48,100,69,37,30.03,29.99,29.93,10,9,6,20,7,24,0.00,1,,285
2012-11-5,70,55,40,48,43,38,89,62,35,30.07,30.01,29.94,10,10,10,12,4,20,0.01,2,Rain,357
2012-11-6,56,52,48,52,47,42,100,87,74,29.97,29.94,29.91,10,8,2,17,6,22,0.19,8,Rain,80
2012-11-7,55,48,40,48,44,40,100,86,71,30.03,29.95,29.89,10,10,5,18,4,24,0.03,7,Rain,317
2012-11-8,66,51,36,43,38,35,100,67,34,30.19,30.13,30.05,10,9,5,9,4,14,0.00,0,,286
2012-11-9,72,51,30,41,35,30,100,61,22,30.31,30.24,30.19,10,9,5,13,2,15,0.00,0,,327
2012-11-10,73,52,31,42,36,31,100,62,23,30.38,30.32,30.27,10,9,5,7,1,10,0.00,0,,300
2012-11-11,77,57,36,53,45,35,100,71,41,30.42,30.35,30.30,10,9,4,13,3,17,0.00,2,,125
2012-11-12,78,64,49,63,57,48,100,73,45,30.30,30.24,30.17,10,8,2,15,4,22,0.09,6,Rain,212
2012-11-13,66,57,48,61,44,34,100,66,31,30.30,30.24,30.20,10,10,7,15,7,18,0.00,4,,345
2012-11-14,53,49,45,45,43,41,86,79,71,30.36,30.29,30.27,10,8,1,15,9,18,0.65,8,Rain,37
2012-11-15,48,46,44,46,44,42,100,90,80,30.30,30.26,30.24,10,7,2,13,6,16,T,8,,28
2012-11-16,60,48,36,45,41,35,100,74,47,30.33,30.28,30.24,10,9,6,12,4,16,0.00,3,,44
2012-11-17,62,47,31,39,33,30,100,66,32,30.40,30.35,30.30,10,9,4,20,7,24,0.00,0,,44
2012-11-18,68,51,33,48,40,32,100,71,42,30.36,30.32,30.27,10,10,8,15,6,20,0.00,1,,16
2012-11-19,66,55,43,52,47,42,100,80,60,30.30,30.24,30.18,10,10,8,14,5,16,0.00,7,,356
2012-11-20,68,56,44,52,49,44,100,77,53,30.21,30.13,30.06,10,10,2,8,1,10,0.00,5,,32
2012-11-21,72,56,39,48,42,39,100,66,31,30.16,30.12,30.07,10,9,5,12,2,15,0.00,0,,349
2012-11-22,70,53,35,42,37,30,100,63,26,30.27,30.21,30.16,10,8,4,10,1,14,0.00,0,,290
2012-11-23,75,54,33,50,40,32,100,65,29,30.20,30.12,30.03,10,8,4,17,5,24,0.00,1,,275
2012-11-24,61,47,33,40,26,13,70,44,17,30.16,30.11,30.06,10,10,10,17,8,24,0.00,0,,316
2012-11-25,62,44,26,27,21,11,92,53,13,30.21,30.15,30.10,10,10,10,10,2,15,0.00,0,,293
2012-11-26,69,47,25,30,25,19,92,54,15,30.26,30.19,30.14,10,10,9,8,1,15,0.00,0,,200
2012-11-27,53,49,44,52,47,32,100,77,53,30.20,30.17,30.12,10,6,2,12,2,14,0.41,8,Rain,259
2012-11-28,58,46,34,50,43,35,100,81,62,30.38,30.31,30.20,10,7,2,12,4,14,0.00,5,,326
2012-11-29,64,48,32,45,35,30,100,65,30,30.45,30.39,30.34,10,4,0,9,1,13,0.00,2,Fog,110
2012-11-30,70,52,34,49,43,33,100,72,44,30.39,30.33,30.27,10,9,5,8,1,10,0.00,3,,168